TimeEDT,TemperatureF,Dew PointF,Humidity,Sea Level PressureIn,VisibilityMPH,Wind Direction,Wind SpeedMPH,Gust SpeedMPH,PrecipitationIn,Events,Conditions,WindDirDegrees,DateUTC
12:55 AM,29.5,16.5,59,29.78,10.0,SW,10.4,-,N/A,,Clear,230,2013-03-21 04:55:00
1:55 AM,27.7,16.9,64,29.78,10.0,SW,6.9,-,N/A,,Clear,230,2013-03-21 05:55:00
2:55 AM,25.3,16.0,68,29.78,10.0,SSW,6.9,-,N/A,,Clear,210,2013-03-21 06:55:00
3:55 AM,24.8,15.4,68,29.78,10.0,SW,4.6,-,N/A,,Clear,220,2013-03-21 07:55:00
4:55 AM,24.3,15.6,70,29.78,10.0,SW,4.6,-,N/A,,Partly Cloudy,220,2013-03-21 08:55:00
5:55 AM,23.5,16.3,74,29.77,10.0,Calm,Calm,-,N/A,,Mostly Cloudy,0,2013-03-21 09:55:00
6:55 AM,22.8,17.1,79,29.78,10.0,WSW,3.5,-,N/A,,Mostly Cloudy,250,2013-03-21 10:55:00
7:55 AM,24.1,16.7,73,29.78,10.0,West,4.6,-,N/A,,Mostly Cloudy,270,2013-03-21 11:55:00
8:55 AM,26.8,16.9,66,29.78,10.0,West,6.9,-,N/A,,Mostly Cloudy,270,2013-03-21 12:55:00
9:55 AM,29.5,17.1,60,29.77,10.0,West,8.1,-,N/A,,Scattered Clouds,260,2013-03-21 13:55:00
10:55 AM,33.4,17.8,53,29.75,10.0,SW,5.8,-,N/A,,Mostly Cloudy,230,2013-03-21 14:55:00
11:55 AM,33.1,14.4,46,29.73,10.0,ESE,3.5,-,N/A,,Mostly Cloudy,110,2013-03-21 15:55:00
12:55 PM,36.0,13.3,39,29.72,10.0,Calm,Calm,-,N/A,,Mostly Cloudy,0,2013-03-21 16:55:00
1:55 PM,35.8,16.5,46,29.68,10.0,South,3.5,-,N/A,,Mostly Cloudy,180,2013-03-21 17:55:00
2:55 PM,36.1,16.9,46,29.65,10.0,South,4.6,-,N/A,,Mostly Cloudy,180,2013-03-21 18:55:00
3:55 PM,35.6,17.6,48,29.62,10.0,East,8.1,-,N/A,,Mostly Cloudy,100,2013-03-21 19:55:00
4:55 PM,35.8,18.3,49,29.61,10.0,ESE,6.9,-,N/A,,Mostly Cloudy,120,2013-03-21 20:55:00
5:55 PM,33.4,19.2,56,29.62,10.0,SE,10.4,-,N/A,,Overcast,130,2013-03-21 21:55:00
6:55 PM,32.7,21.7,64,29.62,10.0,ESE,8.1,-,N/A,,Overcast,120,2013-03-21 22:55:00
7:55 PM,31.1,24.4,76,29.62,10.0,SSE,5.8,-,N/A,,Mostly Cloudy,150,2013-03-21 23:55:00
8:55 PM,30.0,24.8,81,29.63,10.0,Calm,Calm,-,N/A,,Mostly Cloudy,0,2013-03-22 00:55:00
9:55 PM,28.9,25.0,85,29.63,10.0,SW,3.5,-,N/A,,Overcast,230,2013-03-22 01:55:00
10:55 PM,29.7,26.2,87,29.62,7.0,West,4.6,-,N/A,,Mostly Cloudy,260,2013-03-22 02:55:00
11:55 PM,29.1,26.1,88,29.61,10.0,WSW,6.9,-,N/A,,Overcast,250,2013-03-22 03:55:00